This demonstration page uses our WeatherBlox Daily Observations layout. Learn more.

40.92945, -100.16068

Hourly Observations for December 8, 2016

Temp ( °F °C ) Dew Point ( °F °C ) Humidity (%) Winds ( mph kmh ) Pressure ( in mb ) Visibility ( mi km ) Precip ( " mm )
12:15 am 00:15 Clear 8 -13.2 2 -16.6 76 76 WNW 12 19 30.77 1042 10 16.0934 N/A
12:35 am 00:35 Clear 9 -12.9 2 -16.7 73 73 WNW 9 15 30.77 1042 10 16.0934 N/A
12:55 am 00:55 Clear 8 -13.1 2 -16.9 73 73 NW 12 19 30.77 1042 10 16.0934 N/A
1:15 am 01:15 Clear 8 -13.3 1 -17.1 73 73 WNW 12 19 30.77 1042 10 16.0934 N/A
1:35 am 01:35 Clear 8 -13.4 1 -17.3 73 73 WNW 13 20 30.77 1042 10 16.0934 N/A
1:55 am 01:55 Clear 8 -13.5 1 -17.4 73 73 WNW 13 20 30.77 1042 10 16.0934 N/A
2:15 am 02:15 Clear 8 -13.6 1 -17.5 73 73 WNW 13 20 30.77 1042 10 16.0934 N/A
2:35 am 02:35 Clear 8 -13.6 0 -17.6 72 72 WNW 16 26 30.8 1043 10 16.0934 N/A
2:55 am 02:55 Clear 8 -13.6 0 -17.7 71 71 NW 14 22 30.8 1043 10 16.0934 N/A
3:15 am 03:15 Clear 7 -14 0 -18 72 72 NW 13 20 30.8 1043 10 16.0934 N/A
3:35 am 03:35 Clear 7 -14.1 -1 -18.1 72 72 WNW 10 17 30.8 1043 10 16.0934 N/A
3:55 am 03:55 Clear 7 -14.1 -1 -18.1 72 72 WNW 9 15 30.8 1043 10 16.0934 N/A
4:15 am 04:15 Clear 6 -14.3 -1 -18.2 73 73 WNW 9 15 30.83 1044 10 16.0934 N/A
4:35 am 04:35 Clear 6 -14.5 -1 -18.3 73 73 WNW 10 17 30.83 1044 10 16.0934 N/A
4:55 am 04:55 Clear 6 -14.5 -1 -18.4 72 72 WNW 13 20 30.83 1044 10 16.0934 N/A
5:15 am 05:15 Clear 6 -14.5 -1 -18.5 72 72 WNW 14 22 30.83 1044 10 16.0934 N/A
5:35 am 05:35 Clear 6 -14.6 -1 -18.6 72 72 WNW 12 19 30.83 1044 10 16.0934 N/A
5:55 am 05:55 Clear 5 -14.8 -2 -18.7 72 72 WNW 12 19 30.83 1044 10 16.0934 N/A
6:15 am 06:15 Clear 5 -15.1 -2 -19 72 72 NW 13 20 30.83 1044 10 16.0934 N/A
6:35 am 06:35 Clear 5 -15.2 -2 -19 73 73 WNW 12 19 30.86 1045 10 16.0934 N/A
6:55 am 06:55 Clear 4 -15.3 -2 -19 74 74 NW 12 19 30.86 1045 10 16.0934 N/A
7:15 am 07:15 Clear 4 -15.5 -2 -19.1 74 74 WNW 9 15 30.86 1045 10 16.0934 N/A
7:35 am 07:35 Clear 4 -15.5 -3 -19.2 74 74 WNW 9 15 30.86 1045 10 16.0934 N/A
7:55 am 07:55 Sunny 4 -15.6 -3 -19.2 74 74 NW 12 19 30.86 1045 10 16.0934 N/A
8:15 am 08:15 Sunny 5 -15.2 -2 -19 73 73 WNW 13 20 30.86 1045 10 16.0934 N/A
8:35 am 08:35 Sunny 6 -14.7 -2 -18.8 71 71 WNW 12 19 30.89 1046 10 16.0934 N/A
8:55 am 08:55 Sunny 7 -14 -1 -18.6 68 68 WNW 15 24 30.89 1046 10 16.0934 N/A
9:15 am 09:15 Sunny 8 -13.3 -1 -18.1 67 67 NW 16 26 30.86 1045 10 16.0934 N/A
9:35 am 09:35 Sunny 9 -12.6 0 -17.6 67 67 NW 15 24 30.86 1045 10 16.0934 N/A
9:55 am 09:55 Sunny 12 -10.9 2 -16.7 63 63 NNW 17 28 30.83 1044 10 16.0934 N/A
10:15 am 10:15 Sunny 14 -10.2 2 -16.7 59 59 NNW 15 24 30.86 1045 10 16.0934 N/A
10:35 am 10:35 Sunny 15 -9.6 2 -16.6 57 57 NW 15 24 30.86 1045 10 16.0934 N/A
10:55 am 10:55 Sunny 16 -8.9 3 -16.3 55 55 NNW 13 20 30.86 1045 10 16.0934 N/A
11:15 am 11:15 Sunny 17 -8.5 3 -16.2 54 54 NW 12 19 30.83 1044 10 16.0934 N/A
11:35 am 11:35 Sunny 19 -7.5 3 -16.3 50 50 NNW 13 20 30.8 1043 10 16.0934 N/A
11:55 am 11:55 Sunny 19 -7 2 -16.4 47 47 NNW 10 17 30.8 1043 10 16.0934 N/A
12:15 pm 12:15 Sunny 20 -6.6 2 -16.5 46 46 NNW 9 15 30.8 1043 10 16.0934 N/A
12:35 pm 12:35 Sunny 21 -6.2 2 -16.4 45 45 NNW 13 20 30.8 1043 10 16.0934 N/A
12:55 pm 12:55 Sunny 21 -6 2 -16.6 43 43 NNW 7 11 30.8 1043 10 16.0934 N/A
1:15 pm 13:15 Sunny 22 -5.6 2 -16.6 42 42 WNW 12 19 30.74 1041 10 16.0934 N/A
1:35 pm 13:35 Sunny 22 -5.5 2 -16.6 42 42 WNW 8 13 30.74 1041 10 16.0934 N/A
1:55 pm 13:55 Sunny 22 -5.3 2 -16.8 40 40 NW 9 15 30.74 1041 10 16.0934 N/A
2:15 pm 14:15 Sunny 23 -5.1 1 -17.1 39 39 NNW 5 7 30.74 1041 10 16.0934 N/A
2:35 pm 14:35 Sunny 23 -4.8 2 -16.8 39 39 NW 10 17 30.74 1041 10 16.0934 N/A
2:55 pm 14:55 Sunny 23 -5 1 -17.3 38 38 NNW 5 7 30.71 1040 10 16.0934 N/A
3:15 pm 15:15 Sunny 23 -4.8 1 -17.1 38 38 NW 8 13 30.71 1040 10 16.0934 N/A
3:35 pm 15:35 Sunny 23 -4.9 1 -17.4 37 37 WNW 7 11 30.71 1040 10 16.0934 N/A
3:55 pm 15:55 Sunny 23 -5 0 -17.6 37 37 NW 6 9 30.71 1040 10 16.0934 N/A
4:15 pm 16:15 Sunny 23 -5.2 0 -17.7 37 37 NNW 7 11 30.71 1040 10 16.0934 N/A
4:35 pm 16:35 Sunny 22 -5.5 0 -17.6 38 38 NW 5 7 30.71 1040 10 16.0934 N/A
4:55 pm 16:55 Sunny 20 -6.4 1 -17 43 43 WNW 5 7 30.74 1041 10 16.0934 N/A
5:15 pm 17:15 Clear 19 -7.1 1 -17.4 44 44 NW 3 6 30.74 1041 10 16.0934 N/A
5:35 pm 17:35 Clear 17 -8.5 0 -17.6 48 48 NNW 3 6 30.74 1041 10 16.0934 N/A
5:55 pm 17:55 Clear 17 -8.5 0 -17.6 48 48 N 3 6 30.74 1041 10 16.0934 N/A
6:15 pm 18:15 Clear 15 -9.5 1 -17.5 53 53 Calm 30.77 1042 10 16.0934 N/A
6:35 pm 18:35 Clear 13 -10.4 1 -17.4 57 57 Calm 30.77 1042 10 16.0934 N/A
6:55 pm 18:55 Clear 12 -11 0 -17.6 59 59 Calm 30.77 1042 10 16.0934 N/A
7:15 pm 19:15 Clear 11 -11.5 1 -17 64 64 Calm 30.83 1044 10 16.0934 N/A
7:35 pm 19:35 Clear 11 -11.8 1 -17.1 65 65 Calm 30.83 1044 10 16.0934 N/A
7:55 pm 19:55 Clear 10 -12.3 1 -17 68 68 WSW 3 6 30.8 1043 10 16.0934 N/A
8:15 pm 20:15 Clear 9 -12.8 2 -16.9 72 72 Calm 30.8 1043 10 16.0934 N/A
8:35 pm 20:35 Clear 10 -12.5 2 -16.7 71 71 Calm 30.8 1043 10 16.0934 N/A
8:55 pm 20:55 Clear 9 -12.7 2 -16.9 71 71 Calm 30.8 1043 10 16.0934 N/A
9:15 pm 21:15 Clear 8 -13.3 1 -17.2 73 73 Calm 30.8 1043 10 16.0934 N/A
9:35 pm 21:35 Clear 5 -14.8 0 -17.8 78 78 NE 3 6 30.83 1044 10 16.0934 N/A
9:55 pm 21:55 Clear 7 -13.9 1 -17.3 76 76 Calm 30.8 1043 10 16.0934 N/A
10:15 pm 22:15 Clear 6 -14.4 0 -18 74 74 Calm 30.83 1044 10 16.0934 N/A
10:35 pm 22:35 Clear 5 -15.1 -1 -18.5 75 75 Calm 30.83 1044 10 16.0934 N/A
10:55 pm 22:55 Clear 5 -15.1 -1 -18.5 75 75 Calm 30.83 1044 10 16.0934 N/A
11:15 pm 23:15 Clear 5 -15.1 -1 -18.5 75 75 Calm 30.8 1043 10 16.0934 N/A
11:35 pm 23:35 Clear 4 -15.5 -1 -18.5 78 78 Calm 30.83 1044 10 16.0934 N/A
11:55 pm 23:55 Clear 5 -15.2 -1 -18.5 76 76 Calm 30.8 1043 10 16.0934 N/A

Powered by AerisWeather